Caribou, ME

4:35 AM EST on February 23, 2017 (GMT -0500)
Caribou Municipal

Weather History for KCAR - February, 2013

Change the Weather History Date:

Thursday, February 21, 2013

  Actual Average Record
Temperature  
Mean Temperature 30 °F 16 °F  
Max Temperature 34 °F 26 °F 50 °F (1994)
Min Temperature 26 °F 6 °F -28 °F (1993)
Degree Days  
Heating Degree Days 35 49  
Month to date heating degree days 1034 1092  
Since 1 July heating degree days 5860 6386  
Cooling Degree Days 0 0  
Month to date cooling degree days 0 0  
Year to date cooling degree days 0 0  
Moisture  
Dew Point 25 °F    
Average Humidity 81    
Maximum Humidity 92    
Minimum Humidity 69    
Precipitation  
Precipitation 0.01 in 0.08 in 0.54 in (1989)
Month to date precipitation 1.92 1.63  
Year to date precipitation 3.78 4.34  
Snow  
Snow 0.20 in 0.80 in 7.70 in (1977)
Month to date snowfall 29.4 16.8  
Since 1 July snowfall 72.6 77.1  
Snow Depth 12.00 in    
Sea Level Pressure  
Sea Level Pressure 29.72 in    
Wind  
Wind Speed 12 mph (North)    
Max Wind Speed 24 mph    
Max Gust Speed 32 mph    
Visibility 7 miles    
Events Snow    
T = Trace of Precipitation, MM = Missing Value Source: NWS Daily Summary

Daily Weather History Graph

Daily Weather History Graph

Search for Another Location

Airport or City:

Trip Planner

Search our weather history database for the weather conditions in past years. The results will help you decide how hot, cold, wet, or windy it might be!

Date:

Astronomy

Feb. 21, 2013 Rise Set
Actual Time 6:25 AM EST 5:06 PM EST
Civil Twilight 5:55 AM EST 5:37 PM EST
Nautical Twilight 5:19 AM EST 6:12 PM EST
Astronomical Twilight 4:44 AM EST 6:47 PM EST
Moon 1:07 PM EST (2/21) 3:38 AM EST (2/21)
Length of Visible Light 11h 42m
Length of Day
10h 40m
Waxing Gibbous, 83% of the Moon is Illuminated
Feb 21
Waxing Gibbous
Feb 25
Full
Mar 4
Last Quarter
Mar 11
New
Mar 19
First Quarter

Hourly Weather History & Observations

Time (EST) Temp. Windchill Dew Point Humidity Pressure Visibility Wind Dir Wind Speed Gust Speed Precip Events Conditions
12:54 AM 27.0 °F 20.5 °F 24.1 °F 89% 29.47 in 10.0 mi WNW 5.8 mph - 0.00 in   Overcast
1:10 AM 26.6 °F 21.2 °F 24.8 °F 93% 29.44 in 7.0 mi WNW 4.6 mph - N/A   Overcast
1:26 AM 26.6 °F 22.6 °F 24.8 °F 93% 29.44 in 2.5 mi West 3.5 mph - 0.00 in Snow Light Snow
1:37 AM 26.6 °F 22.6 °F 24.8 °F 93% 29.45 in 2.5 mi West 3.5 mph - 0.00 in Snow Light Snow
1:44 AM 26.6 °F 22.6 °F 24.8 °F 93% 29.44 in 3.0 mi West 3.5 mph - 0.00 in Snow Light Snow
1:54 AM 27.0 °F - 24.1 °F 89% 29.48 in 4.0 mi Calm Calm - 0.00 in Snow Light Snow
2:54 AM 27.0 °F 21.6 °F 25.0 °F 92% 29.49 in 6.0 mi WNW 4.6 mph - 0.00 in Snow Light Snow
3:54 AM 28.0 °F 20.8 °F 25.0 °F 88% 29.50 in 10.0 mi WNW 6.9 mph - 0.00 in   Overcast
4:54 AM 28.0 °F 21.7 °F 25.0 °F 88% 29.52 in 4.0 mi NW 5.8 mph - 0.00 in Snow Light Snow
5:17 AM 28.4 °F 21.2 °F 24.8 °F 86% 29.49 in 2.5 mi NW 6.9 mph - 0.00 in Snow Light Snow
5:31 AM 28.4 °F 20.4 °F 24.8 °F 86% 29.50 in 3.0 mi NNW 8.1 mph - 0.01 in Snow Light Snow
5:54 AM 28.0 °F 20.0 °F 25.0 °F 88% 29.54 in 8.0 mi NNW 8.1 mph - 0.01 in Snow Light Snow
6:08 AM 28.4 °F 20.4 °F 26.6 °F 93% 29.51 in 9.0 mi NNW 8.1 mph - 0.00 in Snow Light Snow
6:54 AM 30.0 °F 20.5 °F 26.1 °F 85% 29.57 in 6.0 mi North 11.5 mph - 0.00 in Snow Light Snow
7:54 AM 30.9 °F 20.7 °F 27.0 °F 85% 29.60 in 6.0 mi NNE 13.8 mph 20.7 mph 0.00 in Snow Light Snow
8:40 AM 32.0 °F 23.6 °F 26.6 °F 80% 29.59 in 6.0 mi NNE 10.4 mph - 0.00 in Snow Light Snow
8:54 AM 32.0 °F 23.0 °F 27.0 °F 82% 29.63 in 4.0 mi NNE 11.5 mph - 0.00 in Snow Light Snow
9:15 AM 32.0 °F 23.6 °F 28.4 °F 87% 29.61 in 4.0 mi NNE 10.4 mph - 0.00 in Snow Light Snow
9:25 AM 32.0 °F 22.5 °F 28.4 °F 87% 29.61 in 2.5 mi NNE 12.7 mph - 0.00 in Snow Light Snow
9:33 AM 32.0 °F 23.6 °F 28.4 °F 87% 29.62 in 3.0 mi NNE 10.4 mph - 0.00 in Snow Light Snow
9:46 AM 33.8 °F 24.3 °F 28.4 °F 81% 29.62 in 3.0 mi NNE 13.8 mph 18.4 mph 0.00 in Snow Light Snow
9:54 AM 33.1 °F 23.0 °F 28.0 °F 82% 29.66 in 4.0 mi NNE 15.0 mph - 0.00 in Snow Light Snow
10:05 AM 33.8 °F 24.8 °F 28.4 °F 81% 29.63 in 9.0 mi NNE 12.7 mph - N/A   Overcast
10:15 AM 33.8 °F 23.9 °F 28.4 °F 81% 29.64 in 10.0 mi NNE 15.0 mph 20.7 mph 0.00 in   Overcast
10:24 AM 33.8 °F 24.8 °F 26.6 °F 75% 29.64 in 10.0 mi NNE 12.7 mph 20.7 mph 0.00 in   Overcast
10:54 AM 33.1 °F 23.4 °F 27.0 °F 78% 29.69 in 9.0 mi NNE 13.8 mph 25.3 mph 0.00 in   Overcast
11:54 AM 33.1 °F 22.2 °F 26.1 °F 75% 29.72 in 8.0 mi NE 17.3 mph 28.8 mph 0.00 in Snow Light Snow
12:54 PM 34.0 °F 22.7 °F 25.0 °F 70% 29.75 in 5.0 mi NNE 19.6 mph 32.2 mph 0.00 in Snow Light Snow
1:54 PM 33.1 °F 23.0 °F 27.0 °F 78% 29.78 in 10.0 mi North 15.0 mph 26.5 mph 0.00 in   Overcast
2:54 PM 32.0 °F 21.6 °F 27.0 °F 82% 29.82 in 4.0 mi NNE 15.0 mph 24.2 mph 0.00 in Snow Light Snow
3:18 PM 32.0 °F 19.5 °F 26.6 °F 80% 29.81 in 1.8 mi NNE 21.9 mph 31.1 mph 0.00 in Snow Light Snow
3:24 PM 32.0 °F 20.8 °F 26.6 °F 80% 29.81 in 3.0 mi NNE 17.3 mph 31.1 mph 0.00 in Snow Light Snow
3:31 PM 32.0 °F 19.8 °F 26.6 °F 80% 29.82 in 7.0 mi North 20.7 mph 25.3 mph 0.00 in Snow Light Snow
3:54 PM 32.0 °F 20.8 °F 25.0 °F 75% 29.88 in 8.0 mi NNE 17.3 mph 28.8 mph 0.00 in   Overcast
4:54 PM 30.9 °F 19.4 °F 25.0 °F 79% 29.94 in 10.0 mi North 17.3 mph 26.5 mph 0.00 in   Overcast
5:54 PM 30.0 °F 18.3 °F 23.0 °F 75% 29.98 in 10.0 mi North 17.3 mph 29.9 mph N/A   Overcast
6:36 PM 30.2 °F 18.9 °F 23.0 °F 75% 29.98 in 10.0 mi North 16.1 mph - N/A   Overcast
6:54 PM 28.9 °F 16.9 °F 21.9 °F 75% 30.03 in 10.0 mi North 17.3 mph 27.6 mph N/A   Overcast
7:02 PM 28.4 °F 16.6 °F 21.2 °F 74% 29.99 in 10.0 mi North 16.1 mph - N/A   Mostly Cloudy
7:54 PM 28.0 °F 15.7 °F 21.0 °F 75% 30.07 in 10.0 mi North 17.3 mph - N/A   Overcast
8:54 PM 28.0 °F 18.1 °F 21.0 °F 75% 30.11 in 10.0 mi North 11.5 mph - N/A   Overcast
9:54 PM 28.0 °F 17.5 °F 21.0 °F 75% 30.12 in 10.0 mi North 12.7 mph - N/A   Overcast
10:54 PM 27.0 °F 16.7 °F 21.0 °F 78% 30.15 in 10.0 mi North 11.5 mph - N/A   Overcast
11:54 PM 26.1 °F 16.2 °F 19.0 °F 75% 30.18 in 10.0 mi North 10.4 mph - N/A   Overcast